Regional Weather Roundup
Issued by NWS Wilmington, NC

Home | Current Version | Previous Version | Text Only | Print | Product List | Glossary On
Versions: 1 2 3 4 5 6 7 8 9 10 11 12 13 14 15 16 17 18 19 20 21 22 23 24 25 26 27 28 29 30 31 32 33 34 35 36 37 38 39 40 41 42 43 44 45 46 47 48 49 50
000
ASUS42 KILM 312013
RWRILM
RWRILM
REGIONAL HOURLY WEATHER ROUNDUP
NATIONAL WEATHER SERVICE WILMINGTON NC
400 PM EDT FRI JUL 31 2015

NOTE: "FAIR" INDICATES FEW OR NO CLOUDS BELOW 12,000 FEET WITH NO
SIGNIFICANT WEATHER AND/OR OBSTRUCTIONS TO VISIBILITY.

...............WFO WILMINGTON COUNTY WARNING AREA...............

......COASTAL NC AND SC COUNTIES......

CITY           SKY/WX    TMP DP  RH WIND       PRES   REMARKS
WILMINGTON     PTSUNNY   90  77  65 SE7       29.87F HX 103
N MYRTLE BEACH MOSUNNY   88  77  69 S9        29.89F HX 100
MYRTLE BEACH   MOSUNNY   91  75  59 SE13      29.91F HX 102

......INLAND NC AND SC COUNTIES.......

CITY           SKY/WX    TMP DP  RH WIND       PRES   REMARKS
LUMBERTON      SUNNY     94  68  42 VRB3      29.87F HX  98
ELIZABETHTOWN  PTSUNNY   92  67  43 CALM      29.88F HX  96
WHITEVILLE     MOSUNNY   91  73  54 NE5       29.87F HX  99
FLORENCE       MOSUNNY   93  69  45 SE7       29.88F HX  98
DARLINGTON     NOT AVBL

....................REST OF NORTH CAROLINA......................

.........EASTERN NC.........

CITY           SKY/WX    TMP DP  RH WIND       PRES   REMARKS
CAPE HATTERAS  PTSUNNY   86  75  69 VRB7G16   29.88F HX  95
JACKSONVILLE   PTSUNNY   91  72  52 NW5       29.88F HX  98
MOREHEAD CITY  PTSUNNY   89  77  67 N8        29.87F HX 101
KENANSVILLE    MOSUNNY  N/A N/A N/A NW5       29.89F
NEW BERN       MOSUNNY   90  74  59 CALM      29.89F HX  99
ELIZABETH CITY SUNNY     87  62  43 NE9       29.88F

.........CENTRAL NC.........

CITY           SKY/WX    TMP DP  RH WIND       PRES   REMARKS
RALEIGH DURHAM MOSUNNY   90  64  42 NE5       29.92F HX  91
ROCKY MOUNT    SUNNY     93  63  36 VRB3      29.89F HX  94
ROANOKE RAPIDS NOT AVBL
FAYETTEVILLE   SUNNY     94  65  38 NE7       29.88F HX  96
HOFFMAN        MOSUNNY   93  59  31 N9        29.89F HX  92

.........WESTERN NC.........

CITY           SKY/WX    TMP DP  RH WIND       PRES   REMARKS
CHARLOTTE      MOSUNNY   91  58  32 N6        29.94F HX  90
GREENSBORO     MOSUNNY   88  57  34 N9        29.95F
HICKORY        NOT AVBL
BOONE          NOT AVBL
ASHEVILLE      NOT AVBL

.....................REST OF SOUTH CAROLINA.....................

.........EASTERN SC.........

CITY           SKY/WX    TMP DP  RH WIND       PRES   REMARKS
CHARLESTON     PTSUNNY   90  75  61 SW6       29.89F HX 100
BEAUFORT MCAS  CLOUDY    82  72  71 SW10      29.91S
HILTON HEAD    PTSUNNY   82  77  83 S7        29.92F HX  91

.........CENTRAL SC.........

CITY           SKY/WX    TMP DP  RH WIND       PRES   REMARKS
COLUMBIA       MOSUNNY   95  64  35 SE5       29.88F HX  97
ORANGEBURG     MOSUNNY   93  69  45 NE6       29.89F HX  98
SUMTER SHAW    PTSUNNY   94  68  41 E8        29.87F HX  98

.........WESTERN SC.........

CITY           SKY/WX    TMP DP  RH WIND       PRES   REMARKS
GREENVILLE     NOT AVBL
ROCK HILL      SUNNY     91  62  37 N6        29.94F HX  91
ANDERSON       SUNNY     91  64  40 SE7       29.94F HX  92
CLEMSON        NOT AVBL
GREENWOOD      MOSUNNY   92  61  35 CALM      29.93F HX  92


...................COASTAL AND OFFSHORE REPORTS..................

................LOCAL PIERS AND NC RESERVE................


STATION/POSITION TIME  SKY/WX   TEMP    WIND        PRES    VSBY
                                AIR SEA DIR/SP/G
                 (UTC)          (F)     (DEG/KT/KT) (MB)    (MI)
JOHNY MRCER PIER 1900            85 87  170/ 12/ 14 1012.2R
NC RESRV MASNBRO NOT AVBL
OCEAN CREST PIER NOT AVBL
SPRINGMAID  PIER 1900            85 87  150/  8/  9 1012.8F


................COASTAL AND OFFSHORE BUOYS................


STATION/POSITION TIME  SKY/WX   TEMP    WIND        PRES    VSBY
                                AIR SEA DIR/SP/G
                 (UTC)          (F)     (DEG/KT/KT) (MB)    (MI)
DIMNDSHOAL 41025 1950            81 86   10/ 14/ 16 1011.6F
WVE H/P(F/S)=  4/ 8 WND WVE H/P(F/S)=  2/ 4 SWL H/P/D(F/S/D)=  3/160/ 8

CAPE LOOKOUT     2000            85     230/ 10/ 14 1011.1F
ONSLOW BAY 41036 NOT AVBL
5 WRITEBCH 41038 NOT AVBL
MASONBORO  41110 1919               84                N/A
WVE H/P(F/S)=  2/ 7 WND WVE H/P(F/S)=  2/ 7

WILM HARBR 41108 1911               84                N/A
WVE H/P(F/S)=  3/ 6 WND WVE H/P(F/S)=  3/ 6

27WRITEBCH 41037 1900            80 84  240/  6/  8   N/A
FRYING PAN 41013 1950            84 85  240/ 10/ 12 1013.0F
WVE H/P(F/S)=  3/ 6 WND WVE H/P(F/S)=  2/ 5 SWL H/P/D(F/S/D)=  2/160/ 6

SUNST NRSH 41024 1908            83     230/  8/ 12 1012.7F
CAPRS NRSH 41029 1908            82     220/ 14/ 17 1013.2F
EDISTO     41004 1950            82 85  200/ 12/ 14 1012.6F
WVE H/P(F/S)=  2/ 7 WND WVE H/P(F/S)=  2/ 4 SWL H/P/D(F/S/D)=  2/ 7



..........OFFSHORE BUOYS BEYOND 100 NM OFFSHORE...........
.....IN A TRIANGLE---HAT TO BERMUDA TO BAHAMAS TO HAT.....


STATION/POSITION TIME  SKY/WX   TEMP    WIND        PRES    VSBY
                                AIR SEA DIR/SP/G
                 (UTC)          (F)     (DEG/KT/KT) (MB)    (MI)
150E HAT   41001 2000            82 83  200/ 23/ 29 1010.5F
W BERMUDA  41048 1950            83 81  190/ 17/ 21 1017.5F
WVE H/P(F/S)=  7/ 9 WND WVE H/P(F/S)=  7/ 8 SWL H/P/D(F/S/D)=  3/250/ 9

ATLANTIC S 41049 1950            85 87  110/  6/  8 1021.0F
WVE H/P(F/S)=  4/11 SWL H/P/D(F/S/D)=  3/ 60/11

E BAHAMAS  41046 1950            85 85  110/ 14/ 16 1018.4F
WVE H/P(F/S)=  5/ 9 WND WVE H/P(F/S)=  3/ 5 SWL H/P/D(F/S/D)=  3/ 80/ 9

NE BAHAMAS 41047 1950            84 85  190/ 10/ 14 1018.5F
WVE H/P(F/S)=  4/ 9 WND WVE H/P(F/S)=  2/ 5 SWL H/P/D(F/S/D)=  3/ 80/ 9

120E CANVRL41010 1920            83 84  180/ 12/ 14 1017.1F

END


USA.gov is the U.S. government's official web portal to all federal, state and local government web resources and services.